This demonstration page uses our WeatherBlox Daily Observations layout. Learn more.

Left ArrowRight Arrow

Hourly Observations for September 6, 2022

Temp ( °F °C ) Dew Point ( °F °C ) Humidity (%) Winds ( mph kmh ) Pressure ( in mb ) Visibility ( mi km ) Precip ( " mm )
12:15 am 00:15 Cloudy 72 22 72 22 100 100 S 6 9 30.01 1016 10 16 0.00 0.00
12:35 am 00:35 Cloudy 72 22 72 22 100 100 Calm 30.01 1016 10 16 0.00 0.00
12:55 am 00:55 Cloudy 72 22 72 22 100 100 Calm 30.01 1016 10 16 0.00 0.00
1:15 am 01:15 Cloudy 72 22 72 22 100 100 S 5 7 30.01 1016 10 16 0.00 0.00
1:35 am 01:35 Cloudy 72 22 72 22 100 100 Calm 30.01 1016 5 8 0.01 0.25
1:55 am 01:55 Cloudy 72 22 72 22 100 100 S 3 6 30.00 1016 3 5 0.09 2.29
2:15 am 02:15 Cloudy 72 22 72 22 100 100 Calm 29.99 1016 5 8 0.04 1.02
2:35 am 02:35 Cloudy 72 22 72 22 100 100 Calm 29.98 1015 5 8 0.06 1.52
2:55 am 02:55 Cloudy 72 22 72 22 100 100 N 5 7 29.97 1015 3 5 0.12 3.05
3:15 am 03:15 Cloudy 70 21 70 21 100 100 N 5 7 29.96 1015 1 2 0.25 6.35
3:35 am 03:35 Cloudy 70 21 70 21 100 100 N 3 6 29.96 1015 1 2 0.58 14.73
3:55 am 03:55 Cloudy 70 21 70 21 100 100 NE 7 11 29.94 1014 2 2 0.92 23.37
4:15 am 04:15 Cloudy 70 21 70 21 100 100 ENE 5 7 29.94 1014 5 8 0.03 0.76
4:35 am 04:35 Cloudy 70 21 70 21 100 100 NNE 7 11 29.94 1014 1 2 0.38 9.65
4:55 am 04:55 Cloudy 70 21 70 21 100 100 N 3 6 29.94 1014 3 4 0.71 18.03
5:15 am 05:15 Cloudy 70 21 70 21 100 100 N 5 7 29.94 1014 3 4 0.24 6.10
5:35 am 05:35 Cloudy 70 21 70 21 100 100 NNE 6 9 29.94 1014 4 6 0.33 8.38
5:55 am 05:55 Cloudy 70 21 70 21 100 100 NNE 7 11 29.94 1014 3 5 0.41 10.41
6:15 am 06:15 Cloudy 70 21 70 21 100 100 N 7 11 29.94 1014 7 11 0.01 0.25
6:35 am 06:35 Cloudy 70 21 70 21 100 100 NNE 7 11 29.93 1014 7 11 0.04 1.02
6:55 am 06:55 Cloudy 70 21 70 21 100 100 NNE 8 13 29.94 1014 7 11 0.08 2.03
7:15 am 07:15 Cloudy 70 21 70 21 100 100 N 3 6 29.94 1014 10 16 0.00 0.00
7:35 am 07:35 Cloudy 70 21 70 21 100 100 N 3 6 29.95 1014 10 16 0.01 0.25
7:55 am 07:55 Cloudy 70 21 70 21 100 100 N 6 9 29.94 1014 10 16 0.01 0.25
8:15 am 08:15 Cloudy 70 21 70 21 100 100 N 6 9 29.94 1014 10 16 0.00 0.00
8:35 am 08:35 Cloudy 72 22 72 22 100 100 N 6 9 29.94 1014 10 16 0.00 0.00
8:55 am 08:55 Cloudy 72 22 72 22 100 100 N 7 11 29.95 1014 10 16 0.00 0.00
9:15 am 09:15 Cloudy 72 22 72 22 100 100 N 6 9 29.95 1014 10 16 0.00 0.00
9:35 am 09:35 Cloudy 72 22 72 22 100 100 N 6 9 29.95 1014 10 16 0.00 0.00
9:55 am 09:55 Cloudy 73 23 72 22 94 94 N 6 9 29.95 1014 10 16 0.00 0.00
10:15 am 10:15 Cloudy 75 24 72 22 89 89 N 13 20 29.96 1014 10 16 0.00 0.00
10:35 am 10:35 Mostly Cloudy 75 24 72 22 89 89 NNW 12 19 29.96 1014 10 16 0.00 0.00
10:55 am 10:55 Mostly Cloudy 77 25 72 22 83 83 N 10 17 29.96 1015 10 16 0.00 0.00
11:15 am 11:15 Mostly Cloudy 77 25 72 22 83 83 NNW 13 20 29.96 1015 10 16 0.00 0.00
11:35 am 11:35 Partly Cloudy 79 26 72 22 79 79 NNW 15 24 29.96 1015 10 16 0.00 0.00
11:55 am 11:55 Partly Cloudy 81 27 72 22 74 74 N 13 20 29.95 1014 10 16 0.00 0.00
12:35 pm 12:35 Mostly Cloudy 81 27 70 21 70 70 N 10 17 29.95 1014 10 16 0.00 0.00
12:55 pm 12:55 Mostly Cloudy 81 27 72 22 74 74 NNW 12 19 29.94 1014 10 16 0.00 0.00
1:15 pm 13:15 Partly Cloudy 82 28 72 22 70 70 NNW 12 19 29.94 1014 10 16 0.00 0.00
1:35 pm 13:35 Partly Cloudy 82 28 72 22 70 70 NNW 9 15 29.94 1014 10 16 0.00 0.00
1:55 pm 13:55 Partly Cloudy 84 29 72 22 66 66 N 15 24 29.94 1014 10 16 0.00 0.00
2:15 pm 14:15 Partly Cloudy 82 28 72 22 70 70 NW 10 17 29.94 1014 10 16 0.00 0.00
2:35 pm 14:35 Partly Cloudy 84 29 70 21 62 62 N 12 19 29.93 1014 10 16 0.00 0.00
2:55 pm 14:55 Mostly Cloudy 82 28 70 21 66 66 N 12 19 29.92 1013 10 16 0.00 0.00
3:15 pm 15:15 Partly Cloudy 82 28 70 21 66 66 N 7 11 29.91 1013 10 16 0.00 0.00
3:35 pm 15:35 Partly Cloudy 86 30 70 21 59 59 N 13 20 29.91 1013 10 16 0.00 0.00
3:55 pm 15:55 Partly Cloudy 86 30 68 20 55 55 NNW 14 22 29.91 1013 10 16 0.00 0.00
4:15 pm 16:15 Mostly Cloudy 82 28 68 20 62 62 NNE 12 19 29.91 1013 10 16 0.00 0.00
4:35 pm 16:35 Partly Cloudy 82 28 70 21 66 66 NNE 8 13 29.91 1013 N/A 0.00 0.00
4:55 pm 16:55 Sunny 82 28 68 20 62 62 NNE 9 15 29.91 1013 10 16 0.00 0.00
5:15 pm 17:15 Partly Cloudy 82 28 68 20 62 62 N 6 9 29.91 1013 N/A 0.00 0.00
5:35 pm 17:35 Partly Cloudy 82 28 68 20 62 62 NNE 7 11 29.92 1013 N/A 0.00 0.00
5:55 pm 17:55 Mostly Cloudy 82 28 68 20 62 62 NNE 3 6 29.92 1013 10 16 0.00 0.00
6:15 pm 18:15 Mostly Cloudy 82 28 68 20 62 62 NNE 3 6 29.92 1013 10 16 0.00 0.00
6:35 pm 18:35 Partly Cloudy 81 27 70 21 70 70 NNE 6 9 29.93 1014 10 16 0.00 0.00
6:55 pm 18:55 Mostly Cloudy 81 27 70 21 70 70 NE 7 11 29.93 1014 10 16 0.00 0.00
7:15 pm 19:15 Cloudy 81 27 70 21 70 70 NE 6 9 29.93 1014 10 16 0.00 0.00
7:35 pm 19:35 Cloudy 79 26 70 21 74 74 NE 5 7 29.93 1014 10 16 0.00 0.00
7:55 pm 19:55 Cloudy 79 26 70 21 74 74 NE 5 7 29.95 1014 10 16 0.00 0.00
8:15 pm 20:15 Cloudy 79 26 70 21 74 74 NE 6 9 29.95 1014 10 16 0.00 0.00
8:35 pm 20:35 Cloudy 79 26 70 21 74 74 NNE 3 6 29.95 1014 10 16 0.00 0.00
8:55 pm 20:55 Cloudy 79 26 70 21 74 74 ENE 7 11 29.95 1014 10 16 0.00 0.00
9:15 pm 21:15 Cloudy with Nearby Thunderstorms 77 25 72 22 83 83 ENE 5 7 29.96 1015 10 16 0.00 0.00
9:35 pm 21:35 Cloudy 77 25 72 22 83 83 NE 6 9 29.98 1015 10 16 0.00 0.00
9:55 pm 21:55 Cloudy 75 24 72 22 89 89 E 6 9 29.99 1015 10 16 0.00 0.00
10:15 pm 22:15 Cloudy 73 23 72 22 94 94 ENE 5 7 29.99 1015 10 16 0.00 0.00
10:35 pm 22:35 Cloudy 73 23 72 22 94 94 ENE 3 6 29.99 1015 10 16 0.00 0.00
10:55 pm 22:55 Cloudy 73 23 70 21 89 89 Calm 29.99 1015 10 16 0.00 0.00
11:15 pm 23:15 Cloudy 73 23 70 21 89 89 ENE 3 6 29.99 1015 10 16 0.00 0.00
11:35 pm 23:35 Cloudy 72 22 72 22 100 100 Calm 29.99 1016 1 2 0.14 3.56
11:55 pm 23:55 Cloudy 72 22 72 22 100 100 Calm 29.99 1016 10 16 0.21 5.33

Powered by AerisWeather